Location: Binningen
(47.7924°N, 8.7261°E)
Time: 08:16:26
(UTC+00:00)

Resurs 1-3 - Pass Details

Date: 17 May 2021
Orbit: 630 x 631 km, 97.9° (Epoch: 20 June)

Event Time Altitude Azimuth Distance (km) Brightness Sun altitude
Exits shadow 19:43:48 - 172° (S) 2,920 6.6 -6.9°
Rises 19:43:49 0° 172° (S) 2,911 6.6 -6.9°
Reaches altitude 10° 19:46:01 10° 175° (S) 2,008 5.8 -7.2°
Maximum altitude 19:50:22 66° 259° (WSW) 693 4.0 -7.8°
Drops below altitude 10° 19:54:45 10° 341° (NNW) 2,025 7.3 -8.3°
Sets 19:56:59 0° 345° (NNW) 2,937 8.1 -8.6°
